Regional Weather Roundup
Issued by NWS

Home | Current Version | Previous Version | Graphics & Text | Print | Product List | Glossary On
Versions: 1 2 3 4 5 6 7 8 9 10 11 12 13 14 15 16 17 18 19 20 21 22 23 24 25 26 27 28 29 30 31 32 33 34 35 36 37 38 39 40 41 42 43 44 45 46 47 48 49 50
000
ASUS44 KMEG 200600
RWRTN
TENNESSEE HOURLY STATE WEATHER ROUNDUP
NATIONAL WEATHER SERVICE MEMPHIS TN
1200 AM CST MON FEB 20 2017

TNZ002-004-019-021-049-052-054-088>092-200700-
WEST TENNESSEE

CITY           SKY/WX    TMP DP  RH WIND       PRES   REMARKS
MEMPHIS INTL   PTCLDY    60  50  69 E3        30.08R
NWS MEMPHIS      N/A     57 N/A N/A MISG        N/A
JACKSON        CLEAR     49  48  97 CALM      30.10S
UNION CITY     CLEAR    N/A N/A N/A CALM      30.09R
PARIS          CLEAR     52  48  87 SE7       30.11S
$$

TNZ008-025-027-028-033-062-065-066-200700-
NORTH MIDDLE TENNESSEE

CITY           SKY/WX    TMP DP  RH WIND       PRES   REMARKS
NASHVILLE      PTCLDY    52  47  83 NE5       30.14F
CLARKSVILLE    MOCLDY    51  48  89 E5        30.12F
SMYRNA         PTCLDY    46  45  96 CALM      30.15F
CROSSVILLE     CLEAR     43  42  97 CALM      30.18S
$$

TNZ061-075-076-078-094-096-097-200700-
SOUTH MIDDLE TENNESSEE

CITY           SKY/WX    TMP DP  RH WIND       PRES   REMARKS
TULLAHOMA      CLEAR     46  45  93 CALM      30.15F
WINCHESTER     CLEAR     43  43 100 CALM      30.15S
MCMINNVILLE    CLEAR     45  45 100 CALM      30.16R
COLUMBIA       CLEAR    N/A N/A N/A E3        30.11F
SHELBYVILLE    CLEAR     50  48  93 E7        30.15F
$$

TNZ017-018-042-046-047-200700-
NORTHEAST TENNESSEE

CITY           SKY/WX    TMP DP  RH WIND       PRES   REMARKS
TRI CITIES     CLEAR     39  37  92 CALM      30.20R FOG
$$

TNZ012-013-036-069-073-074-200700-
CENTRAL EAST TENNESSEE

CITY           SKY/WX    TMP DP  RH WIND       PRES   REMARKS
KNOXVILLE      PTCLDY    46  42  86 NE3       30.17R
OAK RIDGE      CLEAR     43  41  93 CALM      30.19R
GATLINBURG     CLEAR     39  39 100 CALM      30.18R
$$

TNZ083-085-099-200700-
SOUTHEAST TENNESSEE

CITY           SKY/WX    TMP DP  RH WIND       PRES   REMARKS
CHATTANOOGA    PTCLDY    48  45  89 CALM      30.18R
$$

SKY/WX REPORTED AS FAIR MEANS FEW OR NO CLOUDS BELOW
12 THOUSAND FEET.





USA.gov is the U.S. government's official web portal to all federal, state and local government web resources and services.